Wetterdaten: Freitag, 25.12.2020
Datum Zeit Temp. Auen Feucht Auen Luftdruck Regen Richtung Richtung Windben
25.12.2020 00:00 4,7 C 94 % 1011,0 hPa 0,0 mm W 273 4,8 km/h (1 Bft)
25.12.2020 00:05 4,7 C 94 % 1010,9 hPa 0,0 mm W 273 3,2 km/h (1 Bft)
25.12.2020 00:10 4,7 C 94 % 1011,0 hPa 0,2 mm W 273 6,4 km/h (2 Bft)
25.12.2020 00:15 4,7 C 94 % 1010,9 hPa 0,0 mm W 273 6,4 km/h (2 Bft)
25.12.2020 00:20 4,7 C 94 % 1011,0 hPa 0,0 mm W 274 9,7 km/h (2 Bft)
25.12.2020 00:25 4,7 C 94 % 1011,0 hPa 0,0 mm W 261 8,0 km/h (2 Bft)
25.12.2020 00:30 4,7 C 94 % 1011,0 hPa 0,0 mm W 261 6,4 km/h (2 Bft)
25.12.2020 00:35 4,7 C 94 % 1011,0 hPa 0,0 mm W 261 9,7 km/h (2 Bft)
25.12.2020 00:40 4,7 C 94 % 1011,1 hPa 0,2 mm W 261 4,8 km/h (1 Bft)
25.12.2020 00:45 4,6 C 94 % 1011,0 hPa 0,2 mm W 261 6,4 km/h (2 Bft)
25.12.2020 00:50 4,6 C 94 % 1011,0 hPa 0,0 mm W 273 9,7 km/h (2 Bft)
25.12.2020 00:55 4,6 C 94 % 1011,0 hPa 0,0 mm W-SW 258 9,7 km/h (2 Bft)
25.12.2020 01:00 4,6 C 94 % 1011,0 hPa 0,0 mm W 269 9,7 km/h (2 Bft)
25.12.2020 01:05 4,6 C 94 % 1011,0 hPa 0,0 mm W 267 6,4 km/h (2 Bft)
25.12.2020 01:10 4,6 C 94 % 1011,0 hPa 0,2 mm W 265 8,0 km/h (2 Bft)
25.12.2020 01:15 4,6 C 94 % 1010,9 hPa 0,0 mm W 265 4,8 km/h (1 Bft)
25.12.2020 01:20 4,6 C 94 % 1010,9 hPa 0,0 mm W 265 0,0 km/h (0 Bft)
25.12.2020 01:25 4,5 C 94 % 1010,8 hPa 0,0 mm W 265 0,0 km/h (0 Bft)
25.12.2020 01:30 4,5 C 94 % 1010,8 hPa 0,0 mm W 265 0,0 km/h (0 Bft)
25.12.2020 01:35 4,5 C 94 % 1010,8 hPa 0,0 mm W 265 0,0 km/h (0 Bft)
25.12.2020 01:40 4,5 C 94 % 1010,8 hPa 0,0 mm W 265 0,0 km/h (0 Bft)
25.12.2020 01:45 4,5 C 94 % 1010,8 hPa 0,0 mm W 265 0,0 km/h (0 Bft)
25.12.2020 01:50 4,4 C 94 % 1010,9 hPa 0,0 mm W 265 0,0 km/h (0 Bft)
25.12.2020 01:55 4,4 C 94 % 1011,0 hPa 0,0 mm W 265 0,0 km/h (0 Bft)
25.12.2020 02:00 4,4 C 94 % 1010,9 hPa 0,0 mm W 265 0,0 km/h (0 Bft)
25.12.2020 02:05 4,4 C 94 % 1011,0 hPa 0,0 mm W 265 0,0 km/h (0 Bft)
25.12.2020 02:10 4,4 C 94 % 1010,9 hPa 0,0 mm W 265 0,0 km/h (0 Bft)
25.12.2020 02:15 4,4 C 94 % 1011,0 hPa 0,2 mm W 265 0,0 km/h (0 Bft)
25.12.2020 02:20 4,4 C 94 % 1011,0 hPa 0,0 mm W 265 4,8 km/h (1 Bft)
25.12.2020 02:25 4,4 C 94 % 1011,1 hPa 0,0 mm W 265 4,8 km/h (1 Bft)
25.12.2020 02:30 4,4 C 94 % 1011,1 hPa 0,2 mm W 265 6,4 km/h (2 Bft)
25.12.2020 02:35 4,4 C 94 % 1011,0 hPa 0,0 mm W 261 8,0 km/h (2 Bft)
25.12.2020 02:40 4,4 C 94 % 1011,0 hPa 0,0 mm W 269 9,7 km/h (2 Bft)
25.12.2020 02:45 4,3 C 94 % 1011,1 hPa 0,0 mm W 269 9,7 km/h (2 Bft)
25.12.2020 02:50 4,3 C 94 % 1011,0 hPa 0,0 mm W 269 6,4 km/h (2 Bft)
25.12.2020 02:55 4,3 C 94 % 1011,1 hPa 0,0 mm W 271 8,0 km/h (2 Bft)
25.12.2020 03:00 4,3 C 94 % 1011,0 hPa 0,0 mm W 274 14,5 km/h (3 Bft)
25.12.2020 03:05 4,3 C 94 % 1011,0 hPa 0,2 mm W 265 12,9 km/h (3 Bft)
25.12.2020 03:10 4,3 C 94 % 1011,1 hPa 0,0 mm W 266 12,9 km/h (3 Bft)
25.12.2020 03:15 4,3 C 94 % 1011,1 hPa 0,0 mm W 261 11,3 km/h (2 Bft)
25.12.2020 03:20 4,3 C 94 % 1011,1 hPa 0,0 mm W 259 20,9 km/h (4 Bft)
25.12.2020 03:25 4,3 C 94 % 1011,1 hPa 0,2 mm W-SW 256 14,5 km/h (3 Bft)
25.12.2020 03:30 4,3 C 94 % 1011,0 hPa 0,0 mm W 275 12,9 km/h (3 Bft)
25.12.2020 03:35 4,3 C 94 % 1010,9 hPa 0,0 mm W-NW 286 16,1 km/h (3 Bft)
25.12.2020 03:40 4,3 C 94 % 1011,0 hPa 0,0 mm W-NW 293 16,1 km/h (3 Bft)
25.12.2020 03:45 4,3 C 94 % 1011,1 hPa 0,2 mm W 277 19,3 km/h (3 Bft)
25.12.2020 03:50 4,2 C 94 % 1011,1 hPa 0,0 mm W 279 17,7 km/h (3 Bft)
25.12.2020 03:55 4,2 C 94 % 1011,1 hPa 0,0 mm W 265 22,5 km/h (4 Bft)
25.12.2020 04:00 4,1 C 94 % 1011,1 hPa 0,0 mm W 280 22,5 km/h (4 Bft)
25.12.2020 04:05 4,1 C 94 % 1011,1 hPa 0,0 mm W 265 19,3 km/h (3 Bft)
25.12.2020 04:10 4,1 C 94 % 1011,2 hPa 0,0 mm W-SW 254 22,5 km/h (4 Bft)
25.12.2020 04:15 4,1 C 94 % 1011,2 hPa 0,0 mm W 263 14,5 km/h (3 Bft)
25.12.2020 04:20 4,1 C 94 % 1011,2 hPa 0,0 mm W 279 16,1 km/h (3 Bft)
25.12.2020 04:25 4,1 C 94 % 1011,2 hPa 0,2 mm W 266 16,1 km/h (3 Bft)
25.12.2020 04:30 4,1 C 94 % 1011,3 hPa 0,0 mm W 271 16,1 km/h (3 Bft)
25.12.2020 04:35 4,1 C 94 % 1011,3 hPa 0,0 mm W-NW 284 19,3 km/h (3 Bft)
25.12.2020 04:40 4,1 C 94 % 1011,3 hPa 0,0 mm W 267 14,5 km/h (3 Bft)
25.12.2020 04:45 4,1 C 94 % 1011,3 hPa 0,0 mm W 277 16,1 km/h (3 Bft)
25.12.2020 04:50 4,0 C 94 % 1011,3 hPa 0,0 mm SW 233 19,3 km/h (3 Bft)
25.12.2020 04:55 4,0 C 94 % 1011,4 hPa 0,0 mm W 271 19,3 km/h (3 Bft)
25.12.2020 05:00 4,0 C 94 % 1011,5 hPa 0,0 mm W 278 19,3 km/h (3 Bft)
25.12.2020 05:05 4,0 C 94 % 1011,5 hPa 0,2 mm W 273 19,3 km/h (3 Bft)
25.12.2020 05:10 4,0 C 94 % 1011,5 hPa 0,0 mm W 262 20,9 km/h (4 Bft)
25.12.2020 05:15 4,0 C 94 % 1011,7 hPa 0,0 mm W 277 19,3 km/h (3 Bft)
25.12.2020 05:20 4,0 C 94 % 1011,7 hPa 0,0 mm W 277 16,1 km/h (3 Bft)
25.12.2020 05:25 3,9 C 94 % 1011,7 hPa 0,0 mm W-NW 282 14,5 km/h (3 Bft)
25.12.2020 05:30 3,9 C 94 % 1011,9 hPa 0,0 mm W-SW 251 22,5 km/h (4 Bft)
25.12.2020 05:35 3,9 C 94 % 1011,9 hPa 0,0 mm W 272 17,7 km/h (3 Bft)
25.12.2020 05:40 3,9 C 94 % 1011,9 hPa 0,2 mm W 270 20,9 km/h (4 Bft)
25.12.2020 05:45 3,9 C 94 % 1012,0 hPa 0,0 mm W 269 19,3 km/h (3 Bft)
25.12.2020 05:50 3,9 C 94 % 1012,0 hPa 0,0 mm W-SW 258 12,9 km/h (3 Bft)
25.12.2020 05:55 3,9 C 94 % 1011,9 hPa 0,0 mm W 263 17,7 km/h (3 Bft)
25.12.2020 06:00 3,9 C 94 % 1012,0 hPa 0,0 mm W 270 20,9 km/h (4 Bft)
25.12.2020 06:05 3,8 C 94 % 1012,0 hPa 0,0 mm W 266 19,3 km/h (3 Bft)
25.12.2020 06:10 3,8 C 94 % 1012,1 hPa 0,0 mm W 276 24,1 km/h (4 Bft)
25.12.2020 06:15 3,8 C 94 % 1012,2 hPa 0,0 mm W-NW 286 25,7 km/h (4 Bft)
25.12.2020 06:20 3,8 C 94 % 1012,2 hPa 0,0 mm W 273 22,5 km/h (4 Bft)
25.12.2020 06:25 3,7 C 94 % 1012,3 hPa 0,0 mm W 269 20,9 km/h (4 Bft)
25.12.2020 06:30 3,7 C 94 % 1012,5 hPa 0,0 mm W-SW 256 22,5 km/h (4 Bft)
25.12.2020 06:35 3,6 C 94 % 1012,5 hPa 0,0 mm W-SW 247 33,8 km/h (5 Bft)
25.12.2020 06:40 3,5 C 94 % 1012,6 hPa 0,0 mm W 272 33,8 km/h (5 Bft)
25.12.2020 06:45 3,4 C 94 % 1012,7 hPa 0,0 mm W 269 30,6 km/h (5 Bft)
25.12.2020 06:50 3,3 C 94 % 1012,7 hPa 0,0 mm W-SW 258 33,8 km/h (5 Bft)
25.12.2020 06:55 3,1 C 93 % 1012,8 hPa 0,0 mm W-SW 251 33,8 km/h (5 Bft)
25.12.2020 07:00 3,0 C 93 % 1012,9 hPa 0,0 mm W 278 38,6 km/h (5 Bft)
25.12.2020 07:05 2,9 C 93 % 1013,0 hPa 0,0 mm W 260 30,6 km/h (5 Bft)
25.12.2020 07:10 2,8 C 93 % 1013,2 hPa 0,0 mm W-SW 252 29,0 km/h (5 Bft)
25.12.2020 07:15 2,7 C 93 % 1013,3 hPa 0,0 mm W-SW 248 30,6 km/h (5 Bft)
25.12.2020 07:20 2,7 C 93 % 1013,3 hPa 0,0 mm SW 229 37,0 km/h (5 Bft)
25.12.2020 07:25 2,6 C 93 % 1013,4 hPa 0,0 mm W-NW 293 33,8 km/h (5 Bft)
25.12.2020 07:30 2,6 C 92 % 1013,6 hPa 0,0 mm W 281 24,1 km/h (4 Bft)
25.12.2020 07:35 2,6 C 92 % 1013,7 hPa 0,0 mm W 275 41,8 km/h (6 Bft)
25.12.2020 07:40 2,5 C 92 % 1013,7 hPa 0,0 mm W 279 37,0 km/h (5 Bft)
25.12.2020 07:45 2,4 C 92 % 1013,6 hPa 0,0 mm W 269 40,2 km/h (6 Bft)
25.12.2020 07:50 2,4 C 92 % 1013,7 hPa 0,0 mm W-NW 291 37,0 km/h (5 Bft)
25.12.2020 07:55 2,4 C 92 % 1013,9 hPa 0,0 mm W 265 38,6 km/h (5 Bft)
25.12.2020 08:00 2,4 C 91 % 1014,0 hPa 0,0 mm W-SW 250 37,0 km/h (5 Bft)
25.12.2020 08:05 2,4 C 91 % 1014,2 hPa 0,0 mm W 278 27,4 km/h (4 Bft)
25.12.2020 08:10 2,4 C 91 % 1014,4 hPa 0,0 mm W 262 27,4 km/h (4 Bft)
25.12.2020 08:15 2,4 C 91 % 1014,5 hPa 0,0 mm W 267 33,8 km/h (5 Bft)
25.12.2020 08:20 2,4 C 91 % 1014,7 hPa 0,0 mm W 269 29,0 km/h (5 Bft)
25.12.2020 08:25 2,3 C 91 % 1014,7 hPa 0,0 mm W-SW 245 25,7 km/h (4 Bft)
25.12.2020 08:30 2,3 C 91 % 1014,8 hPa 0,0 mm W-NW 285 22,5 km/h (4 Bft)
25.12.2020 08:35 2,3 C 91 % 1015,0 hPa 0,0 mm W 262 25,7 km/h (4 Bft)
25.12.2020 08:40 2,3 C 91 % 1015,0 hPa 0,0 mm W-SW 250 24,1 km/h (4 Bft)
25.12.2020 08:45 2,2 C 91 % 1015,0 hPa 0,0 mm W-SW 250 27,4 km/h (4 Bft)
25.12.2020 08:50 2,2 C 91 % 1015,1 hPa 0,0 mm W-SW 256 19,3 km/h (3 Bft)
25.12.2020 08:55 2,2 C 91 % 1015,2 hPa 0,0 mm W 263 29,0 km/h (5 Bft)
25.12.2020 09:00 2,2 C 91 % 1015,2 hPa 0,0 mm W-NW 288 29,0 km/h (5 Bft)
25.12.2020 09:05 2,2 C 91 % 1015,3 hPa 0,0 mm W 277 25,7 km/h (4 Bft)
25.12.2020 09:10 2,2 C 91 % 1015,3 hPa 0,0 mm W-SW 249 20,9 km/h (4 Bft)
25.12.2020 09:15 2,2 C 91 % 1015,3 hPa 0,2 mm W 275 30,6 km/h (5 Bft)
25.12.2020 09:20 2,1 C 91 % 1015,3 hPa 0,0 mm W 270 35,4 km/h (5 Bft)
25.12.2020 09:25 2,1 C 91 % 1015,5 hPa 0,0 mm W 266 25,7 km/h (4 Bft)
25.12.2020 09:30 2,1 C 92 % 1015,5 hPa 0,0 mm W 266 29,0 km/h (5 Bft)
25.12.2020 09:35 2,1 C 92 % 1015,6 hPa 0,0 mm W-SW 255 25,7 km/h (4 Bft)
25.12.2020 09:40 2,1 C 92 % 1015,6 hPa 0,0 mm SW 234 27,4 km/h (4 Bft)
25.12.2020 09:45 2,1 C 92 % 1015,8 hPa 0,0 mm W 277 22,5 km/h (4 Bft)
25.12.2020 09:50 2,0 C 92 % 1015,9 hPa 0,0 mm W-NW 286 20,9 km/h (4 Bft)
25.12.2020 09:55 2,0 C 92 % 1016,1 hPa 0,0 mm W-NW 286 22,5 km/h (4 Bft)
25.12.2020 10:00 1,9 C 92 % 1016,2 hPa 0,0 mm W 269 27,4 km/h (4 Bft)
25.12.2020 10:05 1,9 C 92 % 1016,3 hPa 0,0 mm W 270 27,4 km/h (4 Bft)
25.12.2020 10:10 1,9 C 92 % 1016,4 hPa 0,0 mm W-SW 255 22,5 km/h (4 Bft)
25.12.2020 10:15 1,9 C 92 % 1016,4 hPa 0,0 mm W-NW 284 29,0 km/h (5 Bft)
25.12.2020 10:20 1,8 C 92 % 1016,4 hPa 0,2 mm W-NW 288 29,0 km/h (5 Bft)
25.12.2020 10:25 1,8 C 92 % 1016,5 hPa 0,0 mm W-SW 255 24,1 km/h (4 Bft)
25.12.2020 10:30 1,8 C 92 % 1016,5 hPa 0,0 mm W-SW 258 19,3 km/h (3 Bft)
25.12.2020 10:35 1,7 C 92 % 1016,6 hPa 0,0 mm W-NW 285 20,9 km/h (4 Bft)
25.12.2020 10:40 1,7 C 92 % 1016,7 hPa 0,0 mm W-SW 258 19,3 km/h (3 Bft)
25.12.2020 10:45 1,7 C 92 % 1016,7 hPa 0,0 mm W 268 19,3 km/h (3 Bft)
25.12.2020 10:50 1,6 C 92 % 1016,7 hPa 0,0 mm W-NW 286 16,1 km/h (3 Bft)
25.12.2020 10:55 1,6 C 92 % 1016,7 hPa 0,2 mm W 278 19,3 km/h (3 Bft)
25.12.2020 11:00 1,6 C 92 % 1016,6 hPa 0,0 mm W-NW 288 19,3 km/h (3 Bft)
25.12.2020 11:05 1,6 C 92 % 1016,7 hPa 0,0 mm W-NW 286 19,3 km/h (3 Bft)
25.12.2020 11:10 1,5 C 92 % 1016,7 hPa 0,0 mm W 277 19,3 km/h (3 Bft)
25.12.2020 11:15 1,5 C 92 % 1016,9 hPa 0,0 mm W 263 19,3 km/h (3 Bft)
25.12.2020 11:20 1,4 C 92 % 1016,9 hPa 0,0 mm W 259 19,3 km/h (3 Bft)
25.12.2020 11:25 1,4 C 92 % 1017,1 hPa 0,0 mm W 267 22,5 km/h (4 Bft)
25.12.2020 11:30 1,4 C 93 % 1017,1 hPa 0,2 mm W 273 17,7 km/h (3 Bft)
25.12.2020 11:35 1,4 C 93 % 1017,1 hPa 0,0 mm W-SW 254 14,5 km/h (3 Bft)
25.12.2020 11:40 1,4 C 93 % 1017,2 hPa 0,0 mm W 271 14,5 km/h (3 Bft)
25.12.2020 11:45 1,3 C 93 % 1017,2 hPa 0,0 mm W-NW 284 14,5 km/h (3 Bft)
25.12.2020 11:50 1,3 C 93 % 1017,2 hPa 0,0 mm W 273 14,5 km/h (3 Bft)
25.12.2020 11:55 1,3 C 93 % 1017,3 hPa 0,0 mm W 278 12,9 km/h (3 Bft)
25.12.2020 12:00 1,3 C 93 % 1017,3 hPa 0,0 mm W 265 12,9 km/h (3 Bft)
25.12.2020 12:05 1,3 C 93 % 1017,3 hPa 0,2 mm W 261 12,9 km/h (3 Bft)
25.12.2020 12:10 1,3 C 93 % 1017,3 hPa 0,0 mm W 276 16,1 km/h (3 Bft)
25.12.2020 12:15 1,3 C 93 % 1017,3 hPa 0,0 mm W 267 14,5 km/h (3 Bft)
25.12.2020 12:20 1,3 C 93 % 1017,3 hPa 0,2 mm W 281 12,9 km/h (3 Bft)
25.12.2020 12:25 1,3 C 93 % 1017,2 hPa 0,0 mm W 278 16,1 km/h (3 Bft)
25.12.2020 12:30 1,3 C 93 % 1017,2 hPa 0,0 mm W 262 14,5 km/h (3 Bft)
25.12.2020 12:35 1,3 C 93 % 1017,1 hPa 0,0 mm W 278 17,7 km/h (3 Bft)
25.12.2020 12:40 1,3 C 93 % 1017,1 hPa 0,0 mm W 281 9,7 km/h (2 Bft)
25.12.2020 12:45 1,3 C 93 % 1017,2 hPa 0,0 mm W 275 11,3 km/h (2 Bft)
25.12.2020 12:50 1,3 C 93 % 1017,2 hPa 0,0 mm W 271 11,3 km/h (2 Bft)
25.12.2020 12:55 1,3 C 93 % 1017,2 hPa 0,2 mm W 273 9,7 km/h (2 Bft)
25.12.2020 13:00 1,3 C 93 % 1017,2 hPa 0,0 mm W 278 11,3 km/h (2 Bft)
25.12.2020 13:05 1,3 C 93 % 1017,2 hPa 0,0 mm W-NW 289 12,9 km/h (3 Bft)
25.12.2020 13:10 1,3 C 93 % 1017,2 hPa 0,0 mm W 281 12,9 km/h (3 Bft)
25.12.2020 13:15 1,3 C 93 % 1017,2 hPa 0,0 mm W 268 11,3 km/h (2 Bft)
25.12.2020 13:20 1,2 C 93 % 1017,2 hPa 0,2 mm W 271 11,3 km/h (2 Bft)
25.12.2020 13:25 1,2 C 93 % 1017,2 hPa 0,0 mm W 277 11,3 km/h (2 Bft)
25.12.2020 13:30 1,2 C 93 % 1017,2 hPa 0,0 mm W 273 9,7 km/h (2 Bft)
25.12.2020 13:35 1,2 C 93 % 1017,3 hPa 0,0 mm W 271 8,0 km/h (2 Bft)
25.12.2020 13:40 1,2 C 93 % 1017,4 hPa 0,0 mm W 267 8,0 km/h (2 Bft)
25.12.2020 13:45 1,2 C 93 % 1017,4 hPa 0,2 mm W-SW 255 9,7 km/h (2 Bft)
25.12.2020 13:50 1,2 C 93 % 1017,4 hPa 0,0 mm W 276 9,7 km/h (2 Bft)
25.12.2020 13:55 1,2 C 93 % 1017,4 hPa 0,0 mm W 275 11,3 km/h (2 Bft)
25.12.2020 14:00 1,2 C 93 % 1017,4 hPa 0,0 mm W-NW 286 11,3 km/h (2 Bft)
25.12.2020 14:05 1,2 C 93 % 1017,5 hPa 0,0 mm W 262 11,3 km/h (2 Bft)
25.12.2020 14:10 1,2 C 93 % 1017,5 hPa 0,2 mm W 277 9,7 km/h (2 Bft)
25.12.2020 14:15 1,2 C 93 % 1017,5 hPa 0,0 mm W 277 9,7 km/h (2 Bft)
25.12.2020 14:20 1,2 C 93 % 1017,5 hPa 0,0 mm W 278 9,7 km/h (2 Bft)
25.12.2020 14:25 1,2 C 93 % 1017,5 hPa 0,0 mm W-SW 257 12,9 km/h (3 Bft)
25.12.2020 14:30 1,2 C 93 % 1017,6 hPa 0,0 mm W 276 8,0 km/h (2 Bft)
25.12.2020 14:35 1,2 C 93 % 1017,5 hPa 0,2 mm W 271 6,4 km/h (2 Bft)
25.12.2020 14:40 1,1 C 93 % 1017,6 hPa 0,0 mm W 270 6,4 km/h (2 Bft)
25.12.2020 14:45 1,2 C 93 % 1017,6 hPa 0,0 mm W 270 6,4 km/h (2 Bft)
25.12.2020 14:50 1,1 C 93 % 1017,7 hPa 0,0 mm W 269 8,0 km/h (2 Bft)
25.12.2020 14:55 1,1 C 93 % 1017,7 hPa 0,0 mm W 273 8,0 km/h (2 Bft)
25.12.2020 15:00 1,1 C 93 % 1017,7 hPa 0,0 mm W 273 6,4 km/h (2 Bft)
25.12.2020 15:05 1,1 C 93 % 1017,9 hPa 0,2 mm W 273 8,0 km/h (2 Bft)
25.12.2020 15:10 1,1 C 93 % 1018,0 hPa 0,0 mm W 273 4,8 km/h (1 Bft)
25.12.2020 15:15 1,1 C 93 % 1018,0 hPa 0,0 mm W 267 9,7 km/h (2 Bft)
25.12.2020 15:20 1,1 C 93 % 1018,0 hPa 0,0 mm W 271 8,0 km/h (2 Bft)
25.12.2020 15:25 1,1 C 93 % 1018,0 hPa 0,0 mm W 271 8,0 km/h (2 Bft)
25.12.2020 15:30 1,1 C 93 % 1018,1 hPa 0,0 mm W 281 9,7 km/h (2 Bft)
25.12.2020 15:35 1,1 C 94 % 1018,2 hPa 0,2 mm W 267 8,0 km/h (2 Bft)
25.12.2020 15:40 1,1 C 94 % 1018,1 hPa 0,0 mm W 273 6,4 km/h (2 Bft)
25.12.2020 15:45 1,1 C 94 % 1018,2 hPa 0,0 mm W 267 8,0 km/h (2 Bft)
25.12.2020 15:50 1,1 C 94 % 1018,2 hPa 0,0 mm W 267 6,4 km/h (2 Bft)
25.12.2020 15:55 1,1 C 94 % 1018,2 hPa 0,0 mm W 269 6,4 km/h (2 Bft)
25.12.2020 16:00 1,0 C 94 % 1018,3 hPa 0,0 mm W 270 6,4 km/h (2 Bft)
25.12.2020 16:05 1,0 C 94 % 1018,3 hPa 0,0 mm W 271 8,0 km/h (2 Bft)
25.12.2020 16:10 1,0 C 94 % 1018,4 hPa 0,0 mm W 273 8,0 km/h (2 Bft)
25.12.2020 16:15 1,0 C 94 % 1018,4 hPa 0,0 mm W 268 8,0 km/h (2 Bft)
25.12.2020 16:20 0,9 C 94 % 1018,4 hPa 0,2 mm W 272 6,4 km/h (2 Bft)
25.12.2020 16:25 0,9 C 94 % 1018,5 hPa 0,0 mm W 272 6,4 km/h (2 Bft)
25.12.2020 16:30 0,9 C 94 % 1018,5 hPa 0,0 mm W 272 4,8 km/h (1 Bft)
25.12.2020 16:35 0,9 C 94 % 1018,6 hPa 0,0 mm W 272 6,4 km/h (2 Bft)
25.12.2020 16:40 0,9 C 94 % 1018,7 hPa 0,0 mm W 270 9,7 km/h (2 Bft)
25.12.2020 16:45 0,9 C 94 % 1018,7 hPa 0,0 mm W 270 6,4 km/h (2 Bft)
25.12.2020 16:50 0,9 C 94 % 1018,8 hPa 0,0 mm W 259 9,7 km/h (2 Bft)
25.12.2020 16:55 0,9 C 94 % 1018,8 hPa 0,0 mm W-SW 250 8,0 km/h (2 Bft)
25.12.2020 17:00 0,9 C 94 % 1018,8 hPa 0,0 mm W 277 6,4 km/h (2 Bft)
25.12.2020 17:05 0,9 C 94 % 1018,9 hPa 0,0 mm W-SW 258 6,4 km/h (2 Bft)
25.12.2020 17:10 0,9 C 94 % 1019,0 hPa 0,0 mm W-SW 258 6,4 km/h (2 Bft)
25.12.2020 17:15 0,9 C 94 % 1019,0 hPa 0,0 mm W 261 6,4 km/h (2 Bft)
25.12.2020 17:20 0,9 C 94 % 1019,1 hPa 0,0 mm W 261 3,2 km/h (1 Bft)
25.12.2020 17:25 0,9 C 94 % 1019,0 hPa 0,0 mm W 262 6,4 km/h (2 Bft)
25.12.2020 17:30 0,9 C 94 % 1019,0 hPa 0,0 mm W 263 9,7 km/h (2 Bft)
25.12.2020 17:35 0,9 C 94 % 1019,1 hPa 0,2 mm W 266 6,4 km/h (2 Bft)
25.12.2020 17:40 0,9 C 94 % 1019,1 hPa 0,0 mm W 266 4,8 km/h (1 Bft)
25.12.2020 17:45 0,9 C 94 % 1019,2 hPa 0,0 mm W 265 6,4 km/h (2 Bft)
25.12.2020 17:50 1,0 C 94 % 1019,2 hPa 0,0 mm W 265 4,8 km/h (1 Bft)
25.12.2020 17:55 0,9 C 94 % 1019,2 hPa 0,0 mm W 265 4,8 km/h (1 Bft)
25.12.2020 18:00 0,9 C 94 % 1019,3 hPa 0,0 mm W 265 4,8 km/h (1 Bft)
25.12.2020 18:05 0,9 C 94 % 1019,3 hPa 0,0 mm W 265 4,8 km/h (1 Bft)
25.12.2020 18:10 0,9 C 94 % 1019,3 hPa 0,0 mm W 265 4,8 km/h (1 Bft)
25.12.2020 18:15 0,9 C 94 % 1019,3 hPa 0,0 mm W 265 4,8 km/h (1 Bft)
25.12.2020 18:20 0,9 C 94 % 1019,4 hPa 0,0 mm W 266 4,8 km/h (1 Bft)
25.12.2020 18:25 0,9 C 94 % 1019,4 hPa 0,0 mm W 267 8,0 km/h (2 Bft)
25.12.2020 18:30 0,9 C 94 % 1019,4 hPa 0,0 mm W 267 3,2 km/h (1 Bft)
25.12.2020 18:35 0,9 C 94 % 1019,5 hPa 0,0 mm W 267 6,4 km/h (2 Bft)
25.12.2020 18:40 0,8 C 94 % 1019,5 hPa 0,0 mm W 267 4,8 km/h (1 Bft)
25.12.2020 18:45 0,8 C 94 % 1019,6 hPa 0,0 mm W 267 6,4 km/h (2 Bft)
25.12.2020 18:50 0,8 C 94 % 1019,6 hPa 0,0 mm W 267 6,4 km/h (2 Bft)
25.12.2020 18:55 0,8 C 94 % 1019,7 hPa 0,0 mm W-SW 258 8,0 km/h (2 Bft)
25.12.2020 19:00 0,8 C 94 % 1019,7 hPa 0,0 mm W 280 11,3 km/h (2 Bft)
25.12.2020 19:05 0,9 C 94 % 1019,8 hPa 0,0 mm W 273 8,0 km/h (2 Bft)
25.12.2020 19:10 0,9 C 94 % 1019,7 hPa 0,0 mm W 272 6,4 km/h (2 Bft)
25.12.2020 19:15 0,9 C 94 % 1019,7 hPa 0,0 mm W 261 9,7 km/h (2 Bft)
25.12.2020 19:20 0,9 C 94 % 1019,7 hPa 0,0 mm W-SW 257 8,0 km/h (2 Bft)
25.12.2020 19:25 0,9 C 94 % 1019,8 hPa 0,0 mm W 259 8,0 km/h (2 Bft)
25.12.2020 19:30 0,9 C 94 % 1019,9 hPa 0,0 mm W 265 8,0 km/h (2 Bft)
25.12.2020 19:35 0,9 C 94 % 1020,0 hPa 0,2 mm W 265 8,0 km/h (2 Bft)
25.12.2020 19:40 0,9 C 94 % 1020,1 hPa 0,0 mm W 265 1,6 km/h (1 Bft)
25.12.2020 19:45 0,9 C 94 % 1020,1 hPa 0,0 mm W 265 0,0 km/h (0 Bft)
25.12.2020 19:50 0,9 C 94 % 1020,0 hPa 0,0 mm W 265 1,6 km/h (1 Bft)
25.12.2020 19:55 0,9 C 94 % 1020,1 hPa 0,0 mm W 265 6,4 km/h (2 Bft)
25.12.2020 20:00 0,9 C 94 % 1020,2 hPa 0,0 mm W 269 8,0 km/h (2 Bft)
25.12.2020 20:05 0,8 C 94 % 1020,2 hPa 0,0 mm W-NW 282 6,4 km/h (2 Bft)
25.12.2020 20:10 0,8 C 94 % 1020,2 hPa 0,0 mm W-NW 284 6,4 km/h (2 Bft)
25.12.2020 20:15 0,8 C 94 % 1020,3 hPa 0,0 mm W-NW 284 6,4 km/h (2 Bft)
25.12.2020 20:20 0,8 C 94 % 1020,4 hPa 0,0 mm W-NW 284 4,8 km/h (1 Bft)
25.12.2020 20:25 0,8 C 94 % 1020,5 hPa 0,0 mm W-NW 284 4,8 km/h (1 Bft)
25.12.2020 20:30 0,8 C 94 % 1020,6 hPa 0,0 mm W-NW 283 4,8 km/h (1 Bft)
25.12.2020 20:35 0,8 C 94 % 1020,7 hPa 0,0 mm W 273 8,0 km/h (2 Bft)
25.12.2020 20:40 0,8 C 94 % 1020,7 hPa 0,0 mm W 263 8,0 km/h (2 Bft)
25.12.2020 20:45 0,8 C 94 % 1020,7 hPa 0,0 mm W 274 12,9 km/h (3 Bft)
25.12.2020 20:50 0,8 C 94 % 1020,9 hPa 0,0 mm W 265 11,3 km/h (2 Bft)
25.12.2020 20:55 0,8 C 94 % 1021,0 hPa 0,0 mm W 268 12,9 km/h (3 Bft)
25.12.2020 21:00 0,8 C 94 % 1021,0 hPa 0,0 mm W 279 14,5 km/h (3 Bft)
25.12.2020 21:05 0,7 C 94 % 1021,2 hPa 0,0 mm W-NW 290 11,3 km/h (2 Bft)
25.12.2020 21:10 0,7 C 94 % 1021,2 hPa 0,0 mm W 272 14,5 km/h (3 Bft)
25.12.2020 21:15 0,7 C 94 % 1021,3 hPa 0,0 mm W 274 14,5 km/h (3 Bft)
25.12.2020 21:20 0,7 C 94 % 1021,4 hPa 0,0 mm W 263 14,5 km/h (3 Bft)
25.12.2020 21:25 0,6 C 94 % 1021,5 hPa 0,0 mm W 271 14,5 km/h (3 Bft)
25.12.2020 21:30 0,6 C 94 % 1021,5 hPa 0,0 mm W-SW 254 14,5 km/h (3 Bft)
25.12.2020 21:35 0,6 C 94 % 1021,5 hPa 0,0 mm W 264 14,5 km/h (3 Bft)
25.12.2020 21:40 0,6 C 94 % 1021,6 hPa 0,0 mm W 270 9,7 km/h (2 Bft)
25.12.2020 21:45 0,5 C 94 % 1021,6 hPa 0,0 mm W 267 11,3 km/h (2 Bft)
25.12.2020 21:50 0,5 C 94 % 1021,6 hPa 0,0 mm W-NW 294 14,5 km/h (3 Bft)
25.12.2020 21:55 0,5 C 94 % 1021,7 hPa 0,0 mm W-SW 257 12,9 km/h (3 Bft)
25.12.2020 22:00 0,4 C 94 % 1021,8 hPa 0,0 mm W 272 16,1 km/h (3 Bft)
25.12.2020 22:05 0,4 C 94 % 1021,9 hPa 0,0 mm W 265 16,1 km/h (3 Bft)
25.12.2020 22:10 0,3 C 94 % 1022,0 hPa 0,0 mm W-NW 284 14,5 km/h (3 Bft)
25.12.2020 22:15 0,3 C 94 % 1022,0 hPa 0,0 mm W-SW 254 16,1 km/h (3 Bft)
25.12.2020 22:20 0,3 C 94 % 1022,1 hPa 0,0 mm W-NW 284 16,1 km/h (3 Bft)
25.12.2020 22:25 0,2 C 94 % 1022,2 hPa 0,0 mm W 262 14,5 km/h (3 Bft)
25.12.2020 22:30 0,2 C 94 % 1022,2 hPa 0,0 mm W 273 14,5 km/h (3 Bft)
25.12.2020 22:35 0,1 C 94 % 1022,3 hPa 0,0 mm W 266 11,3 km/h (2 Bft)
25.12.2020 22:40 0,1 C 94 % 1022,4 hPa 0,0 mm W 267 8,0 km/h (2 Bft)
25.12.2020 22:45 0,1 C 94 % 1022,4 hPa 0,0 mm W-NW 283 9,7 km/h (2 Bft)
25.12.2020 22:50 0,1 C 94 % 1022,4 hPa 0,0 mm W-NW 290 9,7 km/h (2 Bft)
25.12.2020 22:55 0,0 C 94 % 1022,4 hPa 0,0 mm W-SW 258 12,9 km/h (3 Bft)
25.12.2020 23:00 0,0 C 94 % 1022,5 hPa 0,0 mm W-NW 294 8,0 km/h (2 Bft)
25.12.2020 23:05 0,0 C 94 % 1022,6 hPa 0,0 mm W 271 8,0 km/h (2 Bft)
25.12.2020 23:10 0,0 C 94 % 1022,7 hPa 0,0 mm W 271 11,3 km/h (2 Bft)
25.12.2020 23:15 0,0 C 94 % 1022,7 hPa 0,0 mm W 261 11,3 km/h (2 Bft)
25.12.2020 23:20 0,0 C 94 % 1022,7 hPa 0,0 mm W 260 11,3 km/h (2 Bft)
25.12.2020 23:25 -0,1 C 94 % 1022,7 hPa 0,0 mm W-NW 286 12,9 km/h (3 Bft)
25.12.2020 23:30 -0,1 C 94 % 1022,7 hPa 0,0 mm W 261 9,7 km/h (2 Bft)
25.12.2020 23:35 -0,1 C 94 % 1022,7 hPa 0,0 mm W 273 12,9 km/h (3 Bft)
25.12.2020 23:40 -0,1 C 94 % 1022,8 hPa 0,0 mm W 279 12,9 km/h (3 Bft)
25.12.2020 23:45 -0,1 C 94 % 1022,8 hPa 0,0 mm W 261 9,7 km/h (2 Bft)
25.12.2020 23:50 -0,2 C 94 % 1022,8 hPa 0,0 mm W 279 9,7 km/h (2 Bft)
25.12.2020 23:55 -0,2 C 94 % 1022,8 hPa 0,0 mm W 266 11,3 km/h (2 Bft)
_ Min-Zeit 23:45 08:00 01:25 - - - 01:20
Minimum _ -0,2 C 91 % 1010,8 hPa - - - 0,0 km/h (0 Bft)
_ Max-Zeit 00:00 00:00 23:40 00:10 - - 07:35
Maximum _ 4,7 C 94 % 1022,8 hPa 0,2 mm - - 41,8 km/h
W (6 Bft)
Durchschnitt _ 2,1 C 93 % 1016,3 hPa #5,6 mm W - 13,9 km/h (3 Bft)